Wind_Speed
22 21 23 26 30 35 14 5 2 14 10 2 3 3 4 2 2 2 3 4 5 5 6 8 6 5 2 4 6 2 2 3 5 2 3 2 3 2 6 4 4 1 3 7
22 22 25 28 31 29 10 5 3 8 8 4 5 3 2 3 2 3 2 4 4 1 5 5 7 6 3 5 5 2 4 3 6 4 2 2 5 6 6 0 2 8 6 4
24 25 28 31 32 25 6 4 3 3 4 2 4 5 2 4 3 4 3 5 5 6 7 9 8 6 1 3 6 2 3 8 13 11 12 1 5 9 12 10 6 9 12 15
27 30 31 33 32 21 8 6 4 2 5 4 7 2 2 6 6 2 3 4 7 7 6 12 16 9 9 7 6 6 6 9 15 18 20 20 21 19 14 16 19 13 13 14
30 31 32 34 34 17 12 5 4 3 5 6 10 1 1 5 6 5 7 7 11 12 13 13 20 19 16 12 1 5 9 8 9 14 17 21 24 22 23 21 19 18 23 27
27 26 28 30 31 20 8 5 1 2 3 4 5 5 7 9 16 8 7 14 16 18 15 10 13 15 17 16 15 10 10 5 8 14 10 12 17 18 21 17 18 14 14 14
28 28 27 26 26 23 10 6 5 3 4 6 7 12 11 16 15 17 19 16 13 5 11 18 19 19 16 13 13 12 12 9 6 8 11 8 4 10 7 10 10 17 13 13
27 26 27 26 25 22 13 9 5 3 7 10 10 12 15 15 15 14 13 9 7 11 13 7 9 4 4 1 1 4 10 9 4 4 8 16 20 8 7 6 7 11 16 10
27 26 25 24 23 21 15 8 7 4 5 3 11 12 14 8 11 8 3 6 9 8 3 4 4 5 8 3 1 3 1 6 5 2 5 5 9 10 8 7 4 13 6 3
28 27 26 26 24 21 18 6 9 2 3 3 9 6 6 5 5 5 4 10 5 6 4 6 5 8 5 6 11 4 3 4 11 11 8 7 12 13 11 4 4 12 9 6
30 29 28 27 26 23 20 12 9 3 3 8 3 4 4 4 4 5 9 2 5 4 7 3 4 4 6 6 12 8 3 4 2 3 3 7 10 10 8 11 7 10 12 14
32 31 30 29 29 26 21 7 6 6 3 5 2 1 3 5 3 3 4 5 8 6 5 6 4 12 9 12 9 3 3 6 5 6 10 21 22 21 19 12 12 15 15 15
33 33 33 31 32 27 14 6 1 1 2 3 3 1 3 4 1 1 3 2 3 2 2 4 4 6 7 9 7 10 4 3 4 8 2 16 20 20 20 13 7 7 13 16
32 35 35 30 27 20 10 4 4 1 3 2 1 2 4 4 3 0 1 2 1 3 3 3 3 4 6 6 5 6 4 6 13 10 13 22 12 21 18 19 10 11 11 11
32 36 33 28 15 12 9 13 12 7 3 3 3 5 2 3 2 2 2 4 3 2 1 2 2 4 4 3 2 4 4 7 8 12 18 16 19 23 21 15 15 13 12 15
33 35 29 16 16 5 3 2 6 13 5 2 2 2 2 1 2 3 5 4 1 1 2 1 2 2 2 3 3 2 9 12 14 11 19 15 16 17 17 13 11 9 9 9
32 31 21 7 11 11 5 3 10 9 5 2 3 3 2 1 1 3 3 3 1 1 0 2 2 2 2 2 3 10 14 13 16 14 17 17 10 15 17 13 14 17 12 10
32 24 9 5 9 5 2 9 11 5 2 2 2 3 5 5 4 2 1 1 1 1 2 1 2 2 2 3 9 14 15 18 13 11 13 14 13 12 12 14 13 13 12 11
29 22 3 1 3 5 7 12 9 4 1 1 1 4 5 4 5 1 2 1 2 1 2 1 2 2 5 7 10 12 15 13 18 15 13 11 13 14 13 14 12 11 11 11
21 7 2 1 1 11 6 2 2 1 1 0 2 1 5 2 5 2 4 0 2 2 2 2 3 4 8 8 10 10 14 14 15 16 12 15 15 16 17 15 13 12 12 11
9 6 2 5 11 1 1 2 2 1 2 2 0 2 4 2 3 3 1 3 2 3 2 2 2 4 3 4 7 14 11 15 14 9 12 15 15 16 16 15 15 17 17 13
11 12 12 4 2 1 2 1 1 2 2 2 2 2 2 1 1 2 1 2 1 3 3 2 3 3 2 7 15 15 13 18 16 22 18 21 21 21 17 14 15 17 18 17
4 1 1 2 1 2 3 1 2 2 2 3 1 3 1 2 2 1 2 3 3 1 2 3 4 3 6 12 8 13 21 23 23 21 24 23 22 21 19 17 17 16 16 13
2 3 4 2 3 4 3 2 3 1 2 3 3 3 2 0 2 0 3 0 2 3 3 4 2 9 11 10 11 12 16 17 17 18 22 21 20 19 20 18 15 14 15 15
2 1 4 5 4 3 2 1 2 2 1 1 1 1 2 2 2 2 2 3 4 5 4 3 7 9 8 11 13 12 12 13 13 19 18 19 19 17 17 17 14 13 13 10
2 4 4 4 3 3 2 3 3 2 2 2 1 1 2 3 2 3 5 3 5 2 2 7 7 9 9 10 11 14 17 17 17 18 19 19 17 17 17 15 13 13 13 11
4 5 4 6 6 6 4 2 1 5 3 2 1 2 3 1 3 3 3 4 3 5 7 5 8 9 9 10 14 16 17 17 18 19 19 17 19 16 13 11 15 13 12 9
Wind_Direction
356 359 354 352 350 348 352 317 292 349 348 11 22 21 334 354 299 207 263 280 273 282 317 296 280 265 261 188 176 241 162 292 273 286 83 33 346 277 184 241 164 225 290 271
13 6 5 3 358 355 336 345 327 353 346 30 10 340 295 264 280 288 272 270 244 286 282 291 265 288 77 174 208 240 171 219 294 196 141 167 228 190 212 70 298 227 263 254
20 15 11 7 4 359 4 328 347 45 57 58 342 340 314 315 223 268 264 285 291 275 255 246 276 276 121 199 238 209 200 248 237 264 303 78 213 202 205 200 230 263 231 265
23 20 17 15 10 10 0 8 41 27 340 13 334 297 300 307 336 250 259 260 248 289 285 300 272 297 307 242 237 219 231 256 255 265 275 280 273 261 213 209 225 249 272 273
24 23 23 19 17 24 52 13 352 329 289 304 315 164 293 318 330 304 293 255 302 303 280 275 293 299 294 281 180 228 232 265 298 279 270 263 268 267 257 230 229 249 259 275
25 20 16 18 20 31 42 14 259 297 291 310 311 354 344 323 323 285 269 295 307 301 304 316 292 281 273 264 274 248 241 257 282 279 276 306 281 258 249 241 233 224 243 251
19 16 17 14 12 22 12 1 323 307 309 320 325 312 313 317 313 294 303 312 302 350 318 299 276 261 262 278 271 265 253 241 254 283 295 258 348 309 286 273 247 208 240 255
12 11 10 10 13 8 5 347 343 333 301 320 311 330 316 313 317 320 310 324 355 325 306 299 312 289 177 166 47 290 239 253 263 266 264 291 306 31 1 4 331 239 231 249
6 6 3 0 1 360 359 346 338 322 308 9 330 322 307 313 333 331 312 28 346 341 298 276 280 313 341 320 179 64 143 246 249 241 270 278 60 17 341 309 287 354 151 97
1 359 356 356 353 350 347 317 338 287 272 305 343 322 329 337 327 307 12 355 341 356 342 320 0 322 333 318 314 342 276 225 224 243 252 276 20 7 327 283 27 351 5 344
356 353 351 350 347 343 336 314 298 241 262 300 355 8 338 347 3 27 336 315 1 318 337 304 343 291 324 289 311 306 296 321 223 248 259 265 18 319 337 325 287 298 299 301
354 351 348 344 343 339 331 288 264 260 204 302 10 51 96 227 289 319 338 354 352 352 321 326 313 306 305 311 307 52 12 342 315 308 311 323 328 314 306 284 263 278 277 279
352 348 346 346 343 337 327 300 358 239 252 233 205 191 232 333 272 269 295 44 0 294 343 308 300 284 304 303 325 349 321 70 269 310 335 306 314 307 298 292 285 300 295 287
348 347 345 348 346 354 12 60 32 341 309 288 121 239 288 247 270 343 239 293 290 280 281 273 292 299 3 325 319 295 314 303 326 292 313 318 320 328 314 298 298 297 288 269
344 346 345 346 350 7 64 77 61 44 356 330 334 307 175 260 281 285 288 299 297 320 258 256 304 342 341 304 261 257 360 335 320 321 321 316 313 319 319 312 296 285 276 278
343 346 345 353 357 0 300 176 38 10 15 273 303 27 225 314 336 12 58 72 18 343 320 350 284 143 282 293 292 310 318 317 313 306 310 307 301 318 330 325 317 299 285 288
342 343 348 9 355 9 37 35 322 330 357 300 303 315 108 3 171 113 77 39 58 313 262 234 296 279 298 277 279 306 317 309 313 313 319 318 323 326 327 327 333 336 330 326
339 340 359 338 355 19 8 4 8 11 325 335 327 317 320 19 330 1 325 10 275 328 334 233 279 294 233 260 293 308 306 311 303 311 314 302 302 307 320 327 327 333 329 322
339 333 328 340 33 357 326 318 321 338 8 332 333 334 330 357 331 353 187 293 268 82 274 228 297 214 229 239 293 310 308 299 300 303 303 312 320 322 325 331 331 325 325 324
340 335 337 231 27 323 315 284 281 242 358 249 259 34 318 360 344 309 327 305 320 288 69 309 230 256 267 272 266 296 307 300 301 305 316 324 326 328 331 329 328 325 321 320
353 339 305 297 331 356 287 277 301 331 235 182 245 254 307 62 296 321 40 318 302 272 99 295 262 263 226 217 299 315 308 303 303 286 302 318 320 325 322 324 325 325 324 322
305 278 295 316 333 244 279 273 241 239 295 193 257 347 272 94 254 265 141 282 262 266 349 268 253 259 345 312 322 337 4 357 342 327 316 316 326 323 320 319 319 324 325 324
336 353 276 325 152 252 231 260 228 270 201 219 262 310 320 153 192 235 265 253 239 302 236 247 251 351 312 328 8 342 334 337 334 334 336 332 328 327 323 320 319 321 320 329
350 353 305 238 211 237 203 244 290 37 247 286 301 279 281 124 225 275 258 339 279 257 239 243 351 330 335 355 345 342 337 340 338 336 335 335 333 332 330 329 327 323 321 325
273 221 251 237 285 270 278 329 289 221 281 231 229 180 270 223 256 219 292 245 250 236 251 321 328 344 354 348 344 337 337 337 335 334 331 331 338 337 333 339 337 337 336 342
244 233 252 228 285 255 216 213 258 161 147 140 200 254 257 236 237 220 224 255 243 278 303 318 337 350 353 346 340 338 341 337 334 337 337 337 342 338 332 342 357 355 356 4
230 241 232 260 280 262 276 216 210 148 180 228 166 239 247 61 238 243 215 229 276 342 322 348 355 352 348 344 337 342 340 339 340 339 333 346 344 342 353 356 357 0 9 21
Height
844 840 834 828 821 813 806 805 791 798 793 789 795 798 810 813 805 808 806 806 798 790 788 784 776 774 774 784 790 786 789 792 781 775 825 826 818 798 801 781 777 789 795 744
846 842 836 830 823 817 813 806 804 801 795 796 799 805 808 810 806 803 803 799 799 796 794 792 773 774 786 788 790 789 789 782 775 769 818 822 811 806 803 813 803 770 754 719
850 845 841 834 826 820 816 808 800 803 808 818 816 816 805 804 807 807 807 801 800 799 792 787 783 781 785 793 793 794 793 781 772 751 737 767 792 794 805 801 776 753 744 731
856 851 845 839 831 824 821 819 827 832 812 808 817 822 815 808 806 806 805 798 800 799 800 785 781 779 783 787 790 792 791 787 777 767 764 763 759 759 779 802 773 760 737 736
861 856 851 845 837 831 830 830 835 828 821 822 816 817 807 813 808 811 802 805 799 798 801 800 794 792 790 785 780 788 784 787 779 780 768 759 755 751 746 753 780 771 761 755
865 860 855 850 846 838 838 841 841 838 819 817 818 811 814 815 814 804 805 805 804 802 797 800 795 791 786 783 783 784 786 791 782 769 751 757 747 728 727 734 739 760 767 745
869 865 860 855 853 850 850 848 844 839 821 821 820 819 820 817 816 814 809 806 805 805 806 799 787 781 784 785 785 786 784 788 792 777 766 762 723 721 728 728 723 739 745 741
873 869 865 861 857 854 853 851 849 844 836 827 821 821 819 817 811 809 807 809 813 811 805 795 782 760 781 789 793 791 787 791 792 784 760 738 723 741 740 737 727 718 733 739
875 870 867 863 859 856 853 852 851 849 844 823 828 827 822 818 814 809 815 816 816 812 803 797 792 779 772 768 775 793 794 796 795 780 782 757 740 751 750 744 726 731 732 747
876 872 868 864 859 856 853 851 850 850 845 833 834 833 830 829 826 820 817 819 817 815 813 800 798 792 788 783 784 779 785 792 793 784 778 761 755 763 756 749 755 755 749 753
877 872 867 863 859 855 852 849 847 848 843 836 836 839 837 833 831 829 825 819 818 812 811 811 805 803 795 798 783 787 788 783 782 784 778 770 764 763 768 761 758 753 752 751
876 871 866 860 855 852 849 845 843 844 845 839 839 839 839 838 838 836 830 831 827 827 822 819 814 810 799 797 792 802 792 797 794 793 769 767 764 766 762 760 759 755 752 748
874 869 864 857 852 846 843 842 842 842 842 837 836 836 838 837 838 838 837 830 836 833 837 830 820 817 802 801 798 801 795 797 794 792 772 773 769 763 755 751 750 752 751 747
873 867 862 855 850 844 841 842 843 843 842 835 835 836 836 836 836 838 838 839 839 839 836 831 824 818 814 806 812 809 796 796 792 782 772 771 763 762 757 750 748 746 744 743
871 865 859 854 849 845 843 844 845 845 846 837 831 834 835 835 836 838 838 838 839 835 833 832 825 824 826 814 817 805 804 800 793 784 783 777 766 761 754 748 744 740 740 736
869 862 857 851 849 847 845 845 848 846 845 843 833 833 834 835 836 837 838 838 838 837 835 831 831 837 835 820 808 801 801 801 797 788 784 775 769 763 754 746 740 736 734 731
866 860 854 851 850 849 848 850 850 847 846 844 836 829 833 834 835 837 838 840 839 838 835 833 833 830 832 820 814 799 798 796 792 787 781 770 765 760 754 747 742 736 732 729
864 857 853 852 850 850 851 850 849 847 847 845 839 833 830 835 830 831 839 837 837 837 836 835 832 829 827 821 808 801 795 790 785 781 778 773 766 760 754 748 743 737 732 728
861 856 851 852 852 852 853 851 849 848 851 843 841 841 837 836 830 834 837 838 829 838 832 830 835 818 818 803 802 800 793 788 780 775 772 767 763 757 752 746 742 738 733 729
858 855 852 851 853 852 852 850 849 847 848 847 841 845 839 843 834 830 837 836 832 827 829 836 830 812 801 801 799 794 787 782 776 769 765 762 757 753 748 745 741 737 733 729
859 858 854 854 852 851 851 848 846 846 842 843 840 843 840 843 842 837 845 840 835 830 827 829 813 805 795 796 795 788 782 776 770 768 766 762 757 752 747 744 741 737 733 729
862 860 856 854 853 851 850 846 847 843 836 838 837 838 840 843 848 845 845 840 841 828 836 830 813 793 794 795 788 784 781 779 774 770 764 759 755 753 748 744 740 737 733 728
857 857 856 854 852 848 839 839 836 838 836 836 836 836 839 844 846 845 846 841 831 837 831 813 796 794 794 789 788 787 783 779 773 768 764 760 756 752 748 743 739 736 732 728
861 860 855 852 841 839 830 828 829 832 834 833 836 837 839 839 838 840 839 831 840 825 820 803 791 794 791 793 791 788 783 779 775 770 765 761 756 751 747 743 740 737 733 728
859 862 851 847 839 840 837 841 840 837 838 838 838 840 842 836 838 838 838 834 824 810 799 792 794 793 796 793 792 789 785 781 777 772 767 762 757 753 748 744 740 737 733 729
859 856 849 842 846 834 839 838 836 836 838 840 839 838 840 836 835 837 828 823 809 795 797 795 793 797 796 796 794 790 786 782 777 772 768 762 757 753 749 745 741 738 735 732
852 843 841 842 840 836 830 830 830 835 836 831 835 836 829 841 833 826 819 812 797 799 798 796 798 798 799 798 794 791 787 783 778 774 769 764 760 754 750 746 743 741 739 737